STARLINK-1108 (44944 NORAD) Tracking and Keplerian Element Data

This shows tracking and keplerian element data for the satellite.

Feedback or suggestion? Click here.




ElementValue
Catalog44944
NameSTARLINK-1108
Epoch Orbit161
Epoch Day93.91667824
Epoch Year2020
RAAN333.6329
Inclination53.0013
Eccentricity0.0001853
Argument of Perigee73.57
Mean Anonmoly28.3874
Mean Motion15.05610589
Decay Rate-0.00024758
L11 44944U 20001AG 20093.91667824 -.00024758 00000-0 -16845-2 0 9999
L22 44944 53.0013 333.6329 0001853 73.5700 28.3874 15.05610589 1617

Live tracking and technical data element details for STARLINK-1108 (NORAD 44944). STARLINK-1108 can be tracked NOW for your location showing map with azimuth and elevation plus other details from your city location.

Track the satellite on the map from your city or location and see movement details for azimuth, elevation, latitude, longitude, range, height, and movement on the map or in text.







IsCatalogInMostPopularTable: catalog: 44944, numindb: 22
Update: records affected: 1



GetName: 44944 STARLINK-1108

Hit Count: updated at: Fri, 03 Apr 2020 23:02:57 GMT